Regional Weather Roundup
Issued by NWS Upton, NY

Current Version | Previous Version | Text Only | Print | Product List | Glossary On
Versions: 1 2 3 4 5 6 7 8 9 10 11 12 13 14 15 16 17 18 19 20 21 22 23 24 25 26 27 28 29 30 31 32 33 34 35 36 37 38 39 40 41 42 43 44 45 46 47 48 49 50
000
ASUS41 KOKX 301605
RWROKX

REGIONAL WEATHER ROUNDUP
NATIONAL WEATHER SERVICE NEW YORK NY
1200 PM EDT MON MAY 30 2016

NOTE: "FAIR" INDICATES FEW OR NO CLOUDS BELOW 12,000 FEET WITH NO
SIGNIFICANT WEATHER AND/OR OBSTRUCTIONS TO VISIBILITY.

NYZ071-072-176-178-NJZ106-104-301700-
NEW YORK CITY METRO AREA


CITY           SKY/WX    TMP DP  RH WIND       PRES   REMARKS
CENTRAL PARK   PTSUNNY   76  67  73 VRB3      30.00F
LAGUARDIA APRT PTSUNNY   77  71  82 VRB5      29.96F
KENNEDY INTL   CLOUDY    75  70  84 SW10      29.99F
NEWARK/LIBERTY PTSUNNY   81  68  64 W7        29.96F
BRNX BOT. GARD   N/A     77  68  73 W1        29.98F
TETERBORO      PTSUNNY   78  66  66 W7        29.96F
$$

NYZ177-179-078>081-301700-
LONG ISLAND NEW YORK

CITY           SKY/WX    TMP DP  RH WIND       PRES   REMARKS
FARMINGDALE    CLOUDY    73  69  87 S8        29.98F
ISLIP          FOG       69  67  93 SE6       29.99F VSB 3/4
SHIRLEY        FOG       68  67  96 S8        30.00F VSB 3/4
RIVERHEAD        N/A     70  70 100 SW3       29.99S
WESTHAMPTON    FOG       66  65  96 SW12      30.02S VSB 1/2
EAST HAMPTON   DRZL/FOG  66  66  98 SW10      30.00F VSB 1
MONTAUK POINT    N/A     66  65  96 SW10G21   30.01F
$$

NYZ052-065-067-301700-
HUDSON VALLEY

CITY           SKY/WX    TMP DP  RH WIND       PRES   REMARKS
WHITE PLAINS   CLOUDY    74  66  76 VRB3      29.98F
NEWBURGH       NOT AVBL
MONTGOMERY     MOSUNNY   75  67  76 S7        29.97F
POUGHKEEPSIE   CLOUDY    75  65  70 SW10      29.96F
ALBANY         MOSUNNY   75  64  68 S9        29.93F
$$

NJZ001-105-106-008-010-013-015-019>022-104-301700-
NEW JERSEY

CITY           SKY/WX    TMP DP  RH WIND       PRES   REMARKS
NEWARK/LIBERTY PTSUNNY   81  68  64 W7        29.96F
TETERBORO      PTSUNNY   78  66  66 W7        29.96F
CALDWELL       PTSUNNY   77  65  66 W8        29.97F
MORRISTOWN     PTSUNNY   77  68  73 W3        29.98F
SOMERVILLE     CLOUDY    79  67  66 VRB3      29.96F
SUSSEX         PTSUNNY   74  65  73 SW6       29.98F
ANDOVER          N/A     74  65  73 CALM      29.99F
TRENTON        MOSUNNY   77  67  71 CALM      29.98S
MILLVILLE      CLOUDY    75  71  87 VRB5      30.00F
ATLANTIC CITY  LGT RAIN  74  73  97 S7        30.00F FOG
WRIGHTSTOWN    CLOUDY    76  71  82 W3        29.97F
TOMS RIVER     CLOUDY   N/A N/A N/A W3        29.99F
BELMAR         CLOUDY    77  70  79 SW6       30.00F
$$

PAZ047>061-062-071-301700-
EASTERN PENNSYLVANIA

CITY           SKY/WX    TMP DP  RH WIND       PRES   REMARKS
PHILADELPHIA   CLOUDY    77  68  73 S6        29.99F
ALLENTOWN      CLOUDY    76  65  68 VRB3      29.99F
SCRANTON       MOSUNNY   76  63  64 SW6       29.99F
$$

CTZ002-004>006-009-010-012-RIZ004-006-007-MAZ004-011-015-301700-
SOUTHERN NEW ENGLAND
 IN CT

CITY           SKY/WX    TMP DP  RH WIND       PRES   REMARKS
BRADLEY INTL   CLOUDY    72  67  84 S6        29.96F
HARTFORD       CLOUDY    72  67  84 SE5       29.97F
DANBURY        PTSUNNY   73  66  78 W7        29.98F
WTRBRY/OXFORD  CLOUDY    70  64  83 SW5       30.00F
BRIDGEPORT     CLOUDY    71  68  90 S9        29.97F
MERIDEN        CLOUDY    74  67  78 CALM      29.97F
NEW HAVEN      CLOUDY    70  67  90 S7        29.98F FOG
CHESTER        CLOUDY    70  70 100 VRB7      29.99F FOG
GROTON         CLOUDY    66  66 100 SW9       29.98S FOG
WILLIMANTIC    CLOUDY    70  66  87 CALM      29.98F

 IN RI

CITY           SKY/WX    TMP DP  RH WIND       PRES   REMARKS
PROVIDENCE     LGT RAIN  68  65  90 CALM      29.99S
BLOCK ISLAND   LGT RAIN  63  63 100 SW15      30.01  VSB 1/2
WESTERLY       CLOUDY    66  63  90 SW7       30.00S FOG

 IN MA

CITY           SKY/WX    TMP DP  RH WIND       PRES   REMARKS
BOSTON         RAIN      56  55  97 SE5       29.99F FOG
WORCESTER      FOG       64  63  96 SE5       29.99F VSB 1
WESTFIELD      CLOUDY    70  65  84 S5        29.96F
PROVINCETOWN   LGT RAIN  64  64 100 SW12      29.99F
NANTUCKET      LGT RAIN  64  61  90 SW14      30.02F FOG
$$

ANZ330-335-338-340-345-350-353-355-301700-
COASTAL MARINE OBSERVATIONS


STATION/POSITION TIME  SKY/WX   TEMP    WIND        PRES    VSBY  WAVE
                                AIR SEA DIR/SP/G                  HT/PER
                 (UTC)          (F)     (DEG/KT/KT) (MB)    (MI)  (FT/S)
NY HARB ENTRANCE 1450            60 58  210/  8/ 10 1015.7          2/ 8
20S FIRE ISLAND  1450            63 61  200/ 12/ 14 1015.9          3/ 7
GREAT SOUTH BAY  1500            65 71  220/ 12/ 14   N/A
23 SSW MONTAUK P 1550            62 59  220/ 16/ 17 1015.7          3/ 8
15 E BARNEGAT LI 1522               61                N/A           3/ 8
HUDSON CANYON    1450            63 59              1017.4          4/ 7
KINGS POINT      1500            69 60              1015.3
EXECUTION ROCKS  NOT AVBL
CENTRAL LI SOUND 1515            66     210/  6/  8   N/A           0
EASTERN LI SOUND 1500            61 55  220/  8/ 10   N/A
ROBBINS REEF     1500            72     250/  5/  6 1014.8
$$


>>>>>>>>>>>>>>>>>>>>>>>>>>>> KEY <<<<<<<<<<<<<<<<<<<<<<<<<<<
>                                                          <
>     SKY/WX - SKY CONDITION/PRESENT WEATHER               <
>     TMP    - TEMPERATURE IN FAHRENHEIT                   <
>     DP     - DEWPOINT IN FAHRENHEIT                      <
>     RH     - RELATIVE HUMIDITY IN PERCENT                <
>     WIND   - DIRECTION AND SPEED IN MPH                  <
>     PRES   - MEAN SEA LEVEL PRESSURE IN INCHES OF HG     <
>     WCI    - WIND CHILL INDEX                            <
>     VSB    - VISIBILITY IN MILES                         <
>     HX     - HEAT INDEX                                  <
>     TC     - TEMPERATURE IN CELSIUS                      <
>     VRB    - VARIABLE WIND DIRECTION                     <
>                                                          <
>>>>>>>>>>>>>>>>>>>>>>>>>>>> KEY <<<<<<<<<<<<<<<<<<<<<<<<<<<





USA.gov is the U.S. government's official web portal to all federal, state and local government web resources and services.